SCP
0 0 0 0 0 0 0 0 0 0 0 0 0 0 0 0 0 0 0 0 0 0 0 0 0 0 0 0 0 0 0 0 0 0 0 0 0 1
0 0 0 0 0 0 0 0 0 0 0 0 0 0 0 0 0 0 0 0 0 0 0 0 0 0 0 0 0 0 0 0 0 0 0 0 0 0
0 0 0 0 0 0 0 0 0 0 0 0 0 0 0 0 0 0 0 0 0 0 0 0 0 0 0 0 0 0 0 0 0 0 0 0 0 0
0 0 0 0 0 0 0 0 0 0 0 0 0 0 0 0 0 0 0 0 0 0 0 0 0 0 0 0 0 0 0 0 0 0 0 0 0 0
0 0 0 0 0 0 0 0 0 0 0 0 0 0 0 0 0 0 0 0 0 0 0 0 0 0 0 0 0 0 0 0 0 0 0 0 0 0
0 0 0 0 0 0 0 0 0 0 0 0 0 0 0 0 0 0 0 0 0 0 0 0 0 0 0 0 0 0 0 0 0 0 0 0 0 0
0 0 0 0 0 0 0 0 0 0 0 0 0 0 0 0 0 0 0 0 0 0 0 0 0 0 0 0 0 0 0 0 0 0 0 0 0 0
0 0 0 0 0 0 0 0 0 0 0 0 0 0 0 0 0 0 0 0 0 0 0 0 0 0 0 0 0 0 0 0 0 0 0 0 0 0
0 0 0 0 0 0 0 0 0 0 0 0 0 0 0 0 0 0 0 0 0 0 0 0 0 0 0 0 0 0 0 0 0 0 0 0 0 0
0 0 0 0 0 0 0 0 0 0 0 0 0 0 0 0 0 0 0 0 0 0 0 0 0 0 0 0 0 0 0 0 0 0 0 0 0 0
0 0 0 0 0 0 0 0 0 0 0 0 0 0 0 0 0 0 0 0 0 0 0 0 0 0 0 0 0 0 0 0 0 0 0 0 0 0
0 0 0 0 0 0 0 0 0 0 0 0 0 0 0 0 0 0 0 0 0 0 0 0 0 0 0 0 0 0 0 0 0 0 0 0 0 0
0 0 0 0 0 0 0 0 0 0 0 0 0 0 0 0 0 0 0 0 0 0 0 0 0 0 0 0 0 0 0 0 0 0 0 0 0 0
0 0 0 0 0 0 0 0 0 0 0 0 0 0 0 0 0 0 0 0 0 0 0 0 0 0 0 0 0 0 0 0 0 0 0 0 0 0
0 0 0 0 0 0 0 0 0 0 0 0 0 0 0 0 0 0 0 0 0 0 0 0 0 0 0 0 0 0 0 0 0 0 0 0 0 0
0 0 0 0 0 0 0 0 0 0 0 0 0 0 0 0 0 0 0 0 0 0 0 0 0 0 0 0 0 0 0 0 0 0 0 0 0 0
0 0 0 0 0 0 0 0 0 0 0 0 0 0 0 0 0 0 0 0 0 0 0 0 0 0 0 0 0 0 0 0 0 0 0 0 0 0
0 0 0 0 0 0 0 0 0 0 0 0 0 0 0 0 0 0 0 0 0 0 0 0 0 0 0 0 0 0 0 0 0 0 0 0 0 0
0 0 0 0 0 0 0 0 0 0 0 0 0 0 0 0 0 0 0 0 0 0 0 0 0 0 0 0 0 0 0 0 0 0 0 0 0 0
0 0 0 0 0 0 0 0 0 0 0 0 0 0 0 0 0 0 0 0 0 0 0 0 0 0 0 0 0 0 0 0 0 0 0 0 0 0
0 0 0 0 0 0 0 0 0 0 0 0 0 0 0 0 0 0 0 0 0 0 0 0 0 0 0 0 0 0 0 0 0 0 0 0 0 0
0 0 0 0 0 0 0 0 0 0 0 0 0 0 0 0 0 0 0 0 0 0 0 0 0 0 0 0 0 0 0 0 0 0 0 0 0 0
0 0 0 0 0 0 0 0 0 0 0 0 0 0 0 0 0 0 0 0 0 0 0 0 0 0 0 0 0 0 0 0 0 0 0 0 0 0
Wind_Speed
3 3 3 2 3 3 3 3 2 2 3 3 2 2 3 3 5 4 4 6 7 6 6 6 6 6 7 8 9 10 12 13 15 16 17 19 21 22
3 4 4 3 3 3 3 3 4 4 4 3 3 3 4 5 5 4 5 8 7 7 7 7 8 8 8 9 9 10 11 12 13 15 16 17 18 20
4 5 6 4 3 3 3 4 4 4 5 5 3 3 4 5 5 4 4 4 5 8 8 9 9 9 9 10 10 10 11 12 13 14 16 16 17 18
6 6 7 5 5 4 4 5 5 6 6 7 4 3 5 5 5 5 5 4 4 7 9 9 9 9 9 10 11 11 11 12 13 13 14 15 17 18
7 7 7 6 7 5 6 6 5 5 6 6 6 3 4 3 4 4 5 4 5 6 7 7 8 8 8 9 10 11 12 12 13 13 14 14 15 17
8 8 8 8 9 8 6 7 6 6 6 6 6 5 5 4 4 4 4 3 4 5 5 6 6 7 7 8 9 11 12 12 13 13 14 14 15 16
8 8 9 11 12 10 7 7 7 6 6 6 6 5 5 4 5 3 4 4 4 4 4 4 3 4 5 7 9 10 11 12 13 13 14 14 15 15
9 9 9 11 13 14 14 13 11 9 8 7 7 8 8 7 5 5 4 4 4 2 3 4 3 5 6 6 8 11 12 12 13 13 14 14 15 15
10 9 9 9 11 10 11 13 13 15 14 10 10 11 9 8 6 6 6 6 6 4 3 6 5 7 7 7 12 13 13 13 13 14 14 14 15 15
11 11 11 11 10 10 10 10 10 11 11 11 11 12 11 9 8 8 7 6 7 6 5 6 5 6 7 7 11 14 14 14 14 14 13 14 14 14
12 12 12 13 14 14 11 11 11 11 11 14 15 14 13 12 9 5 5 5 7 6 5 5 5 6 6 7 8 11 12 12 12 13 13 13 13 12
10 11 15 16 15 14 12 11 12 12 9 8 9 10 11 11 11 10 8 8 7 6 5 6 4 3 4 4 4 4 5 8 10 11 12 11 11 7
10 10 10 16 18 18 15 12 15 12 8 8 7 7 7 7 8 8 9 9 9 9 5 5 4 4 5 5 4 5 5 5 5 6 9 11 12 10
11 10 10 15 18 18 14 14 16 12 8 7 7 8 8 8 8 8 10 11 11 12 9 8 6 7 7 7 7 5 5 5 5 6 6 7 10 13
12 15 15 15 14 13 16 16 13 9 8 8 9 10 9 9 7 6 7 9 11 12 11 12 11 9 8 9 8 8 7 6 6 7 7 6 6 6
12 13 16 15 13 11 10 10 10 9 9 10 10 9 7 7 7 7 6 6 6 8 10 12 12 12 10 11 10 9 8 6 5 6 6 6 6 7
7 6 7 7 8 9 8 9 8 8 9 9 9 9 8 8 8 7 6 6 6 7 7 6 8 9 11 9 9 10 9 9 9 8 7 8 8 8
7 8 9 9 10 10 10 9 9 9 10 9 9 9 9 8 8 7 7 7 8 8 8 7 5 4 5 8 12 12 10 9 9 8 8 8 9 8
8 9 10 10 10 9 9 9 9 9 8 9 9 9 9 8 8 8 7 7 8 9 8 7 6 7 8 9 9 14 11 9 8 8 8 8 9 8
8 10 10 9 9 9 9 9 9 8 8 8 9 9 9 8 8 8 8 9 9 8 8 7 8 9 10 10 8 6 13 11 9 9 8 7 8 8
9 9 9 9 8 8 8 8 8 8 8 8 8 9 8 8 8 9 8 10 10 8 9 9 9 10 8 6 7 8 8 12 12 8 7 7 6 6
9 9 9 9 8 8 7 7 8 8 8 8 8 8 8 8 9 10 9 9 9 9 10 9 8 6 7 8 10 11 9 7 8 10 9 7 5 5
9 8 8 8 8 7 7 8 9 8 7 7 7 7 7 8 8 8 8 9 8 9 9 8 7 6 8 9 10 10 11 9 6 6 6 5 7 9
Wind_Direction
223 216 217 223 211 212 207 196 200 263 283 273 281 293 312 310 312 319 315 313 316 309 293 283 278 272 271 266 257 250 244 238 236 234 232 230 227 225
223 224 229 229 221 212 210 211 211 221 252 257 255 276 295 301 308 312 302 303 302 300 293 284 277 271 268 262 256 251 246 241 238 235 233 230 227 226
235 229 238 231 229 223 211 211 215 212 245 266 251 265 274 283 298 299 293 291 290 288 287 283 277 273 268 263 257 252 247 243 239 237 235 232 229 228
241 236 244 238 233 231 221 222 223 218 233 265 269 261 259 270 278 288 291 291 287 286 284 281 277 272 269 266 260 255 250 245 240 238 236 234 232 231
238 237 243 237 241 236 229 232 234 231 225 247 266 258 262 267 277 280 281 284 287 286 284 281 278 275 271 267 264 258 251 247 244 241 239 238 236 233
239 238 240 235 238 239 237 236 235 237 233 242 259 262 261 261 256 266 279 272 284 290 285 281 279 284 277 272 267 260 254 248 245 242 240 239 238 236
246 242 241 239 238 235 234 235 231 235 238 244 255 260 260 254 251 247 264 279 277 262 273 272 278 283 285 279 272 264 260 253 248 245 241 239 238 238
247 248 247 249 248 245 242 237 227 230 239 242 252 254 259 256 253 245 251 263 275 242 243 271 271 277 277 271 265 264 263 257 250 246 242 240 239 238
241 246 250 247 239 245 249 250 244 236 230 234 247 251 255 249 242 247 239 238 248 249 241 272 264 269 270 269 262 262 262 258 253 249 244 240 238 237
239 239 243 249 243 236 244 250 250 247 238 236 240 246 247 247 238 246 254 254 255 253 226 257 263 265 273 270 262 258 258 256 254 251 248 243 239 238
241 238 237 245 244 231 236 246 254 257 247 238 235 241 243 242 233 233 235 239 259 257 208 229 258 268 271 269 265 257 256 257 256 252 247 243 239 237
244 240 234 236 240 228 228 235 246 253 251 247 239 242 245 247 233 226 232 241 253 262 222 211 242 253 275 257 265 271 266 260 256 252 247 241 234 231
245 244 239 229 232 231 224 229 236 240 243 241 247 250 249 247 242 232 226 230 240 246 227 200 234 235 249 274 278 274 273 273 267 255 244 239 231 223
245 246 242 231 227 228 225 229 232 233 238 238 243 248 249 249 246 240 234 232 237 247 246 222 237 244 253 263 269 269 263 260 260 262 258 242 234 230
247 246 243 237 230 231 231 228 225 224 223 231 240 246 247 249 248 245 242 238 243 245 246 235 235 243 243 252 260 264 270 266 252 252 253 247 240 228
250 251 247 244 237 236 235 229 223 220 220 231 240 247 247 243 241 238 244 238 244 251 240 235 234 234 240 243 248 256 256 258 256 245 249 251 244 235
264 256 245 236 233 231 230 230 224 219 223 230 235 241 241 240 243 234 232 230 233 249 255 237 227 230 236 242 245 248 251 252 251 254 252 257 252 243
250 248 243 237 234 232 229 227 224 222 223 224 227 231 235 236 241 234 225 228 238 246 250 250 234 224 234 239 227 243 247 248 250 246 241 250 257 249
236 242 241 237 234 231 229 227 229 225 217 217 223 226 227 231 234 236 231 230 238 243 246 242 231 228 244 256 236 213 230 242 243 244 238 237 250 254
240 244 243 240 236 233 230 230 231 227 218 218 222 224 223 225 229 233 232 233 238 243 246 240 231 228 234 250 258 238 216 228 239 243 243 241 246 254
252 250 249 244 240 237 235 231 230 227 222 217 220 222 220 220 227 232 234 235 236 242 246 247 242 233 240 247 250 248 237 221 227 236 239 238 241 242
261 254 250 244 240 238 236 232 230 227 223 221 222 223 221 220 227 231 232 234 235 239 247 252 251 234 222 230 242 251 251 235 225 231 237 242 239 237
270 261 252 245 238 234 231 229 228 226 223 223 224 225 222 222 226 231 235 237 239 243 247 250 245 231 231 233 240 246 248 241 227 220 225 231 249 263